Time,TemperatureF,DewpointF,PressureIn,WindDirection,WindDirectionDegrees,WindSpeedMPH,WindSpeedGustMPH,Humidity,HourlyPrecipIn,Conditions,Clouds,dailyrainin,SoftwareType,DateUTC
2013-02-27 00:00:00,29.9,24.5,29.62,NW,307,13.0,21.0,80,0.00,,---,0.00,VWS V14.01,2013-02-27 06:00:00,
2013-02-27 00:05:00,29.9,24.5,29.62,NNE,19,4.0,12.0,80,0.00,,---,0.00,VWS V14.01,2013-02-27 06:05:00,
2013-02-27 00:10:00,29.8,24.4,29.63,NNE,27,3.0,14.0,80,0.00,,---,0.00,VWS V14.01,2013-02-27 06:10:00,
2013-02-27 00:15:00,29.9,24.5,29.63,North,360,14.0,24.0,80,0.00,,---,0.00,VWS V14.01,2013-02-27 06:15:00,
2013-02-27 00:20:00,29.8,24.4,29.63,NNW,329,5.0,24.0,80,0.00,,---,0.00,VWS V14.01,2013-02-27 06:20:00,
2013-02-27 00:25:00,29.7,24.3,29.63,NNE,32,4.0,24.0,80,0.00,,---,0.00,VWS V14.01,2013-02-27 06:25:00,
2013-02-27 00:30:00,29.7,24.3,29.62,NW,322,4.0,5.0,80,0.00,,---,0.00,VWS V14.01,2013-02-27 06:30:00,
2013-02-27 00:35:00,29.7,24.3,29.62,NNW,344,5.0,18.0,80,0.00,,---,0.00,VWS V14.01,2013-02-27 06:35:00,
2013-02-27 00:40:00,29.6,24.2,29.62,NW,306,6.0,18.0,80,0.00,,---,0.00,VWS V14.01,2013-02-27 06:40:00,
2013-02-27 00:45:00,29.6,24.2,29.62,NNW,327,11.0,18.0,80,0.00,,---,0.00,VWS V14.01,2013-02-27 06:45:00,
2013-02-27 00:50:00,29.5,24.1,29.62,NNW,340,17.0,18.0,80,0.00,,---,0.00,VWS V14.01,2013-02-27 06:50:00,
2013-02-27 00:55:00,29.5,24.1,29.62,North,360,11.0,18.0,80,0.00,,---,0.00,VWS V14.01,2013-02-27 06:55:00,
2013-02-27 01:00:00,29.4,24.0,29.62,North,355,7.0,8.0,80,0.00,,---,0.00,VWS V14.01,2013-02-27 07:00:00,
2013-02-27 01:05:00,29.4,24.0,29.62,NNW,347,9.0,13.0,80,0.00,,---,0.00,VWS V14.01,2013-02-27 07:05:00,
2013-02-27 01:10:00,29.3,23.9,29.62,North,350,16.0,18.0,80,0.00,,---,0.00,VWS V14.01,2013-02-27 07:10:00,
2013-02-27 01:15:00,29.2,23.8,29.62,NNE,15,6.0,18.0,80,0.00,,---,0.00,VWS V14.01,2013-02-27 07:15:00,
2013-02-27 01:20:00,29.2,23.8,29.62,NW,311,10.0,18.0,80,0.00,,---,0.00,VWS V14.01,2013-02-27 07:20:00,
2013-02-27 01:25:00,29.1,23.7,29.62,NW,313,5.0,18.0,80,0.00,,---,0.00,VWS V14.01,2013-02-27 07:25:00,
2013-02-27 01:30:00,29.1,23.4,29.62,NNW,335,10.0,13.0,79,0.00,,---,0.00,VWS V14.01,2013-02-27 07:30:00,
2013-02-27 01:35:00,29.1,23.7,29.62,WNW,300,4.0,13.0,80,0.00,,---,0.00,VWS V14.01,2013-02-27 07:35:00,
2013-02-27 01:40:00,29.0,23.6,29.62,North,350,7.0,13.0,80,0.00,,---,0.00,VWS V14.01,2013-02-27 07:40:00,
2013-02-27 01:45:00,29.0,23.3,29.62,NNW,330,11.0,18.0,79,0.00,,---,0.00,VWS V14.01,2013-02-27 07:45:00,
2013-02-27 01:50:00,28.9,23.2,29.62,NNW,331,4.0,18.0,79,0.00,,---,0.00,VWS V14.01,2013-02-27 07:50:00,
2013-02-27 01:55:00,28.9,23.5,29.62,NW,312,5.0,18.0,80,0.00,,---,0.00,VWS V14.01,2013-02-27 07:55:00,
2013-02-27 02:00:00,28.9,23.5,29.62,NNW,338,6.0,11.0,80,0.00,,---,0.00,VWS V14.01,2013-02-27 08:00:00,
2013-02-27 02:05:00,28.8,23.4,29.62,NNW,334,10.0,11.0,80,0.00,,---,0.00,VWS V14.01,2013-02-27 08:05:00,
2013-02-27 02:10:00,28.8,23.7,29.62,North,355,4.0,12.0,81,0.00,,---,0.00,VWS V14.01,2013-02-27 08:10:00,
2013-02-27 02:15:00,28.8,23.7,29.62,NNW,344,9.0,15.0,81,0.00,,---,0.00,VWS V14.01,2013-02-27 08:15:00,
2013-02-27 02:20:00,28.8,23.4,29.61,NNW,340,6.0,15.0,80,0.00,,---,0.00,VWS V14.01,2013-02-27 08:20:00,
2013-02-27 02:25:00,28.8,23.7,29.61,WNW,294,4.0,15.0,81,0.00,,---,0.00,VWS V14.01,2013-02-27 08:25:00,
2013-02-27 02:30:00,28.8,23.7,29.61,NW,304,4.0,6.0,81,0.00,,---,0.00,VWS V14.01,2013-02-27 08:30:00,
2013-02-27 02:35:00,28.8,23.7,29.61,NW,323,3.0,14.0,81,0.00,,---,0.00,VWS V14.01,2013-02-27 08:35:00,
2013-02-27 02:40:00,28.8,23.7,29.61,NW,305,4.0,16.0,81,0.00,,---,0.00,VWS V14.01,2013-02-27 08:40:00,
2013-02-27 02:45:00,28.8,23.7,29.61,NW,319,13.0,16.0,81,0.00,,---,0.00,VWS V14.01,2013-02-27 08:45:00,
2013-02-27 02:50:00,28.8,23.7,29.61,NW,319,5.0,16.0,81,0.00,,---,0.00,VWS V14.01,2013-02-27 08:50:00,
2013-02-27 02:55:00,28.8,23.7,29.60,NW,319,3.0,16.0,81,0.00,,---,0.00,VWS V14.01,2013-02-27 08:55:00,
2013-02-27 03:00:00,28.8,23.7,29.61,NW,313,11.0,11.0,81,0.00,,---,0.00,VWS V14.01,2013-02-27 09:00:00,
2013-02-27 03:05:00,28.8,23.7,29.61,North,360,6.0,16.0,81,0.00,,---,0.00,VWS V14.01,2013-02-27 09:05:00,
2013-02-27 03:10:00,28.8,23.7,29.61,NNW,333,5.0,16.0,81,0.00,,---,0.00,VWS V14.01,2013-02-27 09:10:00,
2013-02-27 03:15:00,28.9,23.8,29.61,NW,325,5.0,16.0,81,0.00,,---,0.00,VWS V14.01,2013-02-27 09:15:00,
2013-02-27 03:20:00,28.9,23.8,29.61,NW,309,6.0,16.0,81,0.00,,---,0.00,VWS V14.01,2013-02-27 09:20:00,
2013-02-27 03:25:00,28.9,23.8,29.61,NNW,346,5.0,16.0,81,0.00,,---,0.00,VWS V14.01,2013-02-27 09:25:00,
2013-02-27 03:30:00,28.9,23.8,29.61,NW,317,11.0,11.0,81,0.00,,---,0.00,VWS V14.01,2013-02-27 09:30:00,
2013-02-27 03:35:00,29.0,23.9,29.61,NW,325,4.0,13.0,81,0.00,,---,0.00,VWS V14.01,2013-02-27 09:35:00,
2013-02-27 03:40:00,29.0,23.9,29.60,NNW,340,4.0,13.0,81,0.00,,---,0.00,VWS V14.01,2013-02-27 09:40:00,
2013-02-27 03:45:00,29.1,24.0,29.60,North,355,11.0,13.0,81,0.00,,---,0.00,VWS V14.01,2013-02-27 09:45:00,
2013-02-27 03:50:00,29.1,24.0,29.60,NNW,335,4.0,18.0,81,0.00,,---,0.00,VWS V14.01,2013-02-27 09:50:00,
2013-02-27 03:55:00,29.2,24.1,29.60,NW,322,14.0,18.0,81,0.00,,---,0.00,VWS V14.01,2013-02-27 09:55:00,
2013-02-27 04:00:00,29.2,24.1,29.60,NNW,338,5.0,7.0,81,0.00,,---,0.00,VWS V14.01,2013-02-27 10:00:00,
2013-02-27 04:05:00,29.2,24.1,29.60,NNW,338,5.0,15.0,81,0.00,,---,0.00,VWS V14.01,2013-02-27 10:05:00,
2013-02-27 04:10:00,29.2,24.1,29.60,WNW,299,10.0,15.0,81,0.00,,---,0.00,VWS V14.01,2013-02-27 10:10:00,
2013-02-27 04:15:00,29.3,24.2,29.60,NW,304,3.0,15.0,81,0.00,,---,0.00,VWS V14.01,2013-02-27 10:15:00,
2013-02-27 04:20:00,29.3,24.2,29.60,WNW,298,4.0,15.0,81,0.00,,---,0.00,VWS V14.01,2013-02-27 10:20:00,
2013-02-27 04:25:00,29.3,24.2,29.60,NNW,329,11.0,15.0,81,0.00,,---,0.00,VWS V14.01,2013-02-27 10:25:00,
2013-02-27 04:30:00,29.4,24.3,29.60,WNW,303,4.0,8.0,81,0.00,,---,0.00,VWS V14.01,2013-02-27 10:30:00,
2013-02-27 04:35:00,29.4,24.3,29.60,NNW,336,11.0,12.0,81,0.00,,---,0.00,VWS V14.01,2013-02-27 10:35:00,
2013-02-27 04:40:00,29.4,24.3,29.60,NNW,329,5.0,14.0,81,0.00,,---,0.00,VWS V14.01,2013-02-27 10:40:00,
2013-02-27 04:45:00,29.4,24.3,29.60,NNW,330,7.0,16.0,81,0.00,,---,0.00,VWS V14.01,2013-02-27 10:45:00,
2013-02-27 04:50:00,29.4,24.3,29.60,NW,317,9.0,16.0,81,0.00,,---,0.00,VWS V14.01,2013-02-27 10:50:00,
2013-02-27 04:55:00,29.5,24.4,29.60,NNW,329,10.0,16.0,81,0.00,,---,0.00,VWS V14.01,2013-02-27 10:55:00,
2013-02-27 05:00:00,29.5,24.4,29.60,West,279,6.0,10.0,81,0.00,,---,0.00,VWS V14.01,2013-02-27 11:00:00,
2013-02-27 05:05:00,29.5,24.4,29.60,NNE,19,8.0,13.0,81,0.00,,---,0.00,VWS V14.01,2013-02-27 11:05:00,
2013-02-27 05:10:00,29.5,24.4,29.60,NW,316,9.0,13.0,81,0.00,,---,0.00,VWS V14.01,2013-02-27 11:10:00,
2013-02-27 05:15:00,29.6,24.5,29.60,WNW,300,5.0,16.0,81,0.00,,---,0.00,VWS V14.01,2013-02-27 11:15:00,
2013-02-27 05:20:00,29.6,24.5,29.60,NW,316,6.0,16.0,81,0.00,,---,0.00,VWS V14.01,2013-02-27 11:20:00,
2013-02-27 05:25:00,29.6,24.5,29.59,NNW,339,17.0,17.0,81,0.00,,---,0.00,VWS V14.01,2013-02-27 11:25:00,
2013-02-27 05:30:00,29.6,24.5,29.59,NNW,340,11.0,13.0,81,0.00,,---,0.00,VWS V14.01,2013-02-27 11:30:00,
2013-02-27 05:35:00,29.6,24.5,29.59,WNW,298,6.0,15.0,81,0.00,,---,0.00,VWS V14.01,2013-02-27 11:35:00,
2013-02-27 05:40:00,29.6,24.5,29.59,WNW,300,12.0,15.0,81,0.00,,---,0.00,VWS V14.01,2013-02-27 11:40:00,
2013-02-27 05:45:00,29.6,24.5,29.59,NW,319,11.0,16.0,81,0.00,,---,0.00,VWS V14.01,2013-02-27 11:45:00,
2013-02-27 05:50:00,29.6,24.5,29.59,WNW,298,13.0,16.0,81,0.00,,---,0.00,VWS V14.01,2013-02-27 11:50:00,
2013-02-27 05:55:00,29.7,24.6,29.59,NNW,348,10.0,17.0,81,0.00,,---,0.00,VWS V14.01,2013-02-27 11:55:00,
2013-02-27 06:02:00,29.7,24.6,29.59,NW,323,8.0,8.0,81,0.00,,---,0.00,VWS V14.01,2013-02-27 12:02:00,
2013-02-27 06:07:00,29.7,24.3,29.59,NW,307,12.0,15.0,80,0.00,,---,0.00,VWS V14.01,2013-02-27 12:07:00,
2013-02-27 06:12:00,29.7,24.3,29.59,North,355,10.0,15.0,80,0.00,,---,0.00,VWS V14.01,2013-02-27 12:12:00,
2013-02-27 06:17:00,29.7,24.3,29.59,NW,320,7.0,21.0,80,0.00,,---,0.00,VWS V14.01,2013-02-27 12:17:00,
2013-02-27 06:22:00,29.7,24.3,29.59,NW,319,9.0,21.0,80,0.00,,---,0.00,VWS V14.01,2013-02-27 12:22:00,
2013-02-27 06:27:00,29.7,24.3,29.59,NW,319,5.0,21.0,80,0.00,,---,0.00,VWS V14.01,2013-02-27 12:27:00,
2013-02-27 06:32:00,29.6,24.2,29.59,NW,313,12.0,13.0,80,0.00,,---,0.00,VWS V14.01,2013-02-27 12:32:00,
2013-02-27 06:37:00,29.6,24.2,29.59,NNW,340,11.0,21.0,80,0.00,,---,0.00,VWS V14.01,2013-02-27 12:37:00,
2013-02-27 06:42:00,29.5,24.1,29.59,NNW,333,10.0,21.0,80,0.00,,---,0.00,VWS V14.01,2013-02-27 12:42:00,
2013-02-27 06:47:00,29.4,24.0,29.59,NW,326,10.0,21.0,80,0.00,,---,0.00,VWS V14.01,2013-02-27 12:47:00,
2013-02-27 06:52:00,29.3,24.2,29.59,NNW,329,6.0,21.0,81,0.00,,---,0.00,VWS V14.01,2013-02-27 12:52:00,
2013-02-27 06:57:00,29.3,24.2,29.59,NE,46,10.0,23.0,81,0.00,,---,0.00,VWS V14.01,2013-02-27 12:57:00,
2013-02-27 07:02:00,29.3,24.2,29.59,NW,314,16.0,16.0,81,0.00,,---,0.00,VWS V14.01,2013-02-27 13:02:00,
2013-02-27 07:07:00,29.2,24.4,29.59,NW,304,10.0,19.0,82,0.00,,---,0.00,VWS V14.01,2013-02-27 13:07:00,
2013-02-27 07:12:00,29.2,24.4,29.59,NW,305,8.0,19.0,82,0.00,,---,0.00,VWS V14.01,2013-02-27 13:12:00,
2013-02-27 07:17:00,29.1,24.3,29.59,WNW,298,16.0,21.0,82,0.00,,---,0.00,VWS V14.01,2013-02-27 13:17:00,
2013-02-27 07:22:00,29.1,24.3,29.59,WNW,295,6.0,21.0,82,0.00,,---,0.00,VWS V14.01,2013-02-27 13:22:00,
2013-02-27 07:27:00,29.0,24.2,29.59,NW,308,4.0,21.0,82,0.00,,---,0.00,VWS V14.01,2013-02-27 13:27:00,
2013-02-27 07:32:00,29.1,24.3,29.59,WNW,300,6.0,12.0,82,0.00,,---,0.00,VWS V14.01,2013-02-27 13:32:00,
2013-02-27 07:37:00,29.1,24.3,29.59,NNW,333,17.0,17.0,82,0.00,,---,0.00,VWS V14.01,2013-02-27 13:37:00,
2013-02-27 07:42:00,29.1,24.6,29.59,NW,305,14.0,17.0,83,0.00,,---,0.00,VWS V14.01,2013-02-27 13:42:00,
2013-02-27 07:47:00,29.1,24.6,29.60,WNW,302,13.0,17.0,83,0.00,,---,0.00,VWS V14.01,2013-02-27 13:47:00,
2013-02-27 07:52:00,29.2,24.7,29.60,NW,322,11.0,20.0,83,0.00,,---,0.00,VWS V14.01,2013-02-27 13:52:00,
2013-02-27 07:58:00,29.3,24.8,29.59,NW,319,10.0,20.0,83,0.00,,---,0.00,VWS V14.01,2013-02-27 13:58:00,
2013-02-27 08:03:00,29.4,24.9,29.60,NW,324,22.0,22.0,83,0.00,,---,0.00,VWS V14.01,2013-02-27 14:03:00,
2013-02-27 08:08:00,29.4,24.9,29.60,North,351,11.0,22.0,83,0.00,,---,0.00,VWS V14.01,2013-02-27 14:08:00,
2013-02-27 08:13:00,29.4,24.6,29.60,NW,309,12.0,22.0,82,0.00,,---,0.00,VWS V14.01,2013-02-27 14:13:00,
2013-02-27 08:18:00,29.5,25.0,29.60,NW,309,10.0,22.0,83,0.00,,---,0.00,VWS V14.01,2013-02-27 14:18:00,
2013-02-27 08:23:00,29.4,24.9,29.60,NW,308,9.0,22.0,83,0.00,,---,0.00,VWS V14.01,2013-02-27 14:23:00,
2013-02-27 08:28:00,29.5,25.0,29.60,NNW,328,14.0,22.0,83,0.00,,---,0.00,VWS V14.01,2013-02-27 14:28:00,
2013-02-27 08:33:00,29.4,24.9,29.60,North,355,6.0,17.0,83,0.00,,---,0.00,VWS V14.01,2013-02-27 14:33:00,
2013-02-27 08:38:00,29.3,25.4,29.60,WNW,287,9.0,20.0,85,0.00,,---,0.00,VWS V14.01,2013-02-27 14:38:00,
2013-02-27 08:43:00,28.9,25.5,29.60,NNW,336,10.0,21.0,87,0.00,,---,0.00,VWS V14.01,2013-02-27 14:43:00,
2013-02-27 08:48:00,28.7,25.9,29.60,NNW,341,6.0,21.0,89,0.00,,---,0.00,VWS V14.01,2013-02-27 14:48:00,
2013-02-27 08:53:00,28.5,26.0,29.60,WNW,302,10.0,21.0,90,0.00,,---,0.00,VWS V14.01,2013-02-27 14:53:00,
2013-02-27 08:58:00,28.5,26.0,29.60,NNW,348,16.0,21.0,90,0.00,,---,0.00,VWS V14.01,2013-02-27 14:58:00,
2013-02-27 09:03:00,28.4,26.1,29.60,NW,317,6.0,18.0,91,0.00,,---,0.00,VWS V14.01,2013-02-27 15:03:00,
2013-02-27 09:08:00,28.3,26.3,29.60,NW,323,3.0,18.0,92,0.00,,---,0.00,VWS V14.01,2013-02-27 15:08:00,
2013-02-27 09:13:00,28.4,26.4,29.60,NW,311,8.0,18.0,92,0.00,,---,0.00,VWS V14.01,2013-02-27 15:13:00,
2013-02-27 09:18:00,28.4,26.4,29.60,WNW,300,12.0,18.0,92,0.00,,---,0.00,VWS V14.01,2013-02-27 15:18:00,
2013-02-27 09:23:00,28.4,26.6,29.60,WNW,292,11.0,18.0,93,0.00,,---,0.00,VWS V14.01,2013-02-27 15:23:00,
2013-02-27 09:28:00,28.5,26.7,29.60,NW,326,6.0,18.0,93,0.00,,---,0.00,VWS V14.01,2013-02-27 15:28:00,
2013-02-27 09:33:00,28.5,26.7,29.60,WNW,286,6.0,18.0,93,0.00,,---,0.00,VWS V14.01,2013-02-27 15:33:00,
2013-02-27 09:38:00,28.6,26.8,29.60,WNW,296,9.0,18.0,93,0.00,,---,0.00,VWS V14.01,2013-02-27 15:38:00,
2013-02-27 09:43:00,28.7,26.9,29.60,WNW,301,9.0,18.0,93,0.00,,---,0.00,VWS V14.01,2013-02-27 15:43:00,
2013-02-27 09:48:00,28.7,26.9,29.60,NW,317,6.0,18.0,93,0.00,,---,0.00,VWS V14.01,2013-02-27 15:48:00,
2013-02-27 09:53:00,28.7,26.9,29.60,WNW,303,13.0,18.0,93,0.00,,---,0.00,VWS V14.01,2013-02-27 15:53:00,
2013-02-27 09:57:00,28.6,26.8,29.60,WNW,300,10.0,18.0,93,0.00,,---,0.00,VWS V14.01,2013-02-27 15:57:00,
2013-02-27 10:03:00,28.6,27.1,29.60,NNW,344,6.0,17.0,94,0.00,,---,0.00,VWS V14.01,2013-02-27 16:03:00,
2013-02-27 10:08:00,28.6,27.1,29.60,NW,315,11.0,17.0,94,0.00,,---,0.00,VWS V14.01,2013-02-27 16:08:00,
2013-02-27 10:13:00,28.7,27.2,29.60,WNW,303,8.0,17.0,94,0.00,,---,0.00,VWS V14.01,2013-02-27 16:13:00,
2013-02-27 10:17:00,28.7,27.2,29.60,NNW,340,11.0,17.0,94,0.00,,---,0.00,VWS V14.01,2013-02-27 16:17:00,
2013-02-27 10:22:00,28.7,27.2,29.60,NW,304,6.0,17.0,94,0.00,,---,0.00,VWS V14.01,2013-02-27 16:22:00,
2013-02-27 10:27:00,28.7,27.2,29.60,WNW,300,6.0,17.0,94,0.00,,---,0.00,VWS V14.01,2013-02-27 16:27:00,
2013-02-27 10:32:00,28.7,27.2,29.60,NW,318,12.0,14.0,94,0.00,,---,0.00,VWS V14.01,2013-02-27 16:32:00,
2013-02-27 10:37:00,28.7,27.5,29.60,NW,318,5.0,17.0,95,0.00,,---,0.00,VWS V14.01,2013-02-27 16:37:00,
2013-02-27 10:42:00,28.6,27.4,29.60,NNW,336,12.0,17.0,95,0.00,,---,0.00,VWS V14.01,2013-02-27 16:42:00,
2013-02-27 10:47:00,28.6,27.4,29.60,NNW,330,9.0,17.0,95,0.00,,---,0.00,VWS V14.01,2013-02-27 16:47:00,
2013-02-27 10:52:00,28.7,27.5,29.60,NW,313,14.0,17.0,95,0.00,,---,0.00,VWS V14.01,2013-02-27 16:52:00,
2013-02-27 10:57:00,28.7,27.5,29.60,NW,311,9.0,17.0,95,0.00,,---,0.00,VWS V14.01,2013-02-27 16:57:00,
2013-02-27 11:02:00,28.8,27.5,29.60,NW,311,13.0,16.0,95,0.00,,---,0.00,VWS V14.01,2013-02-27 17:02:00,
2013-02-27 11:07:00,28.9,27.6,29.60,NW,325,10.0,16.0,95,0.00,,---,0.00,VWS V14.01,2013-02-27 17:07:00,
2013-02-27 11:12:00,29.0,27.8,29.60,WNW,290,5.0,16.0,95,0.00,,---,0.00,VWS V14.01,2013-02-27 17:12:00,
2013-02-27 11:17:00,29.0,27.8,29.61,WNW,292,11.0,16.0,95,0.00,,---,0.00,VWS V14.01,2013-02-27 17:17:00,
2013-02-27 11:22:00,29.1,28.1,29.60,WNW,298,12.0,16.0,96,0.00,,---,0.00,VWS V14.01,2013-02-27 17:22:00,
2013-02-27 11:27:00,29.1,27.9,29.61,WNW,296,5.0,16.0,95,0.00,,---,0.00,VWS V14.01,2013-02-27 17:27:00,
2013-02-27 11:32:00,29.2,28.0,29.61,NW,323,10.0,14.0,95,0.00,,---,0.00,VWS V14.01,2013-02-27 17:32:00,
2013-02-27 11:37:00,29.2,28.2,29.61,NW,307,4.0,14.0,96,0.00,,---,0.00,VWS V14.01,2013-02-27 17:37:00,
2013-02-27 11:42:00,29.2,28.2,29.61,NNW,336,7.0,16.0,96,0.00,,---,0.00,VWS V14.01,2013-02-27 17:42:00,
2013-02-27 11:47:00,29.3,28.3,29.61,NW,305,10.0,16.0,96,0.00,,---,0.00,VWS V14.01,2013-02-27 17:47:00,
2013-02-27 11:52:00,29.4,28.4,29.61,NW,308,6.0,16.0,96,0.00,,---,0.00,VWS V14.01,2013-02-27 17:52:00,
2013-02-27 11:57:00,29.5,28.5,29.61,WNW,296,13.0,16.0,96,0.00,,---,0.00,VWS V14.01,2013-02-27 17:57:00,
2013-02-27 17:30:00,31.0,30.0,29.65,NW,315,6.0,15.0,96,0.01,,---,0.04,VWS V14.01,2013-02-27 23:30:00,
2013-02-27 18:03:00,31.0,30.0,29.65,NW,315,6.0,15.0,96,0.01,,---,0.04,VWS V14.01,2013-02-28 00:03:00,
2013-02-27 18:08:00,30.8,29.5,29.67,NW,310,5.0,8.0,95,0.00,,---,0.04,VWS V14.01,2013-02-28 00:08:00,
2013-02-27 18:13:00,30.7,29.4,29.67,NNW,331,6.0,13.0,95,0.00,,---,0.04,VWS V14.01,2013-02-28 00:13:00,
2013-02-27 18:18:00,30.7,29.4,29.67,NW,313,10.0,13.0,95,0.00,,---,0.04,VWS V14.01,2013-02-28 00:18:00,
2013-02-27 18:23:00,30.5,29.2,29.68,NNW,337,4.0,15.0,95,0.00,,---,0.04,VWS V14.01,2013-02-28 00:23:00,
2013-02-27 18:28:00,30.2,29.2,29.68,WNW,303,12.0,16.0,96,0.00,,---,0.04,VWS V14.01,2013-02-28 00:28:00,
2013-02-27 18:33:00,30.0,29.0,29.68,NW,312,7.0,13.0,96,0.00,,---,0.04,VWS V14.01,2013-02-28 00:33:00,
2013-02-27 18:38:00,29.9,28.9,29.68,WNW,291,3.0,13.0,96,0.00,,---,0.04,VWS V14.01,2013-02-28 00:38:00,
2013-02-27 18:43:00,29.8,28.8,29.68,NW,309,8.0,15.0,96,0.00,,---,0.04,VWS V14.01,2013-02-28 00:43:00,
2013-02-27 18:48:00,29.7,28.7,29.69,WNW,298,11.0,15.0,96,0.00,,---,0.04,VWS V14.01,2013-02-28 00:48:00,
2013-02-27 18:53:00,29.7,28.7,29.69,WNW,294,6.0,15.0,96,0.00,,---,0.04,VWS V14.01,2013-02-28 00:53:00,
2013-02-27 18:58:00,29.7,29.0,29.69,WNW,293,12.0,15.0,97,0.00,,---,0.04,VWS V14.01,2013-02-28 00:58:00,
2013-02-27 19:03:00,29.6,28.9,29.69,WNW,302,12.0,13.0,97,0.00,,---,0.04,VWS V14.01,2013-02-28 01:03:00,
2013-02-27 19:08:00,29.7,29.0,29.69,NW,304,10.0,13.0,97,0.00,,---,0.04,VWS V14.01,2013-02-28 01:08:00,
2013-02-27 19:13:00,29.6,28.9,29.69,WNW,300,6.0,16.0,97,0.00,,---,0.04,VWS V14.01,2013-02-28 01:13:00,
2013-02-27 19:18:00,29.6,28.9,29.69,WNW,302,9.0,16.0,97,0.00,,---,0.04,VWS V14.01,2013-02-28 01:18:00,
2013-02-27 19:23:00,29.6,28.6,29.69,NW,315,6.0,16.0,96,0.00,,---,0.04,VWS V14.01,2013-02-28 01:23:00,
2013-02-27 19:28:00,29.6,28.9,29.69,WNW,294,9.0,16.0,97,0.00,,---,0.04,VWS V14.01,2013-02-28 01:28:00,
2013-02-27 19:33:00,29.6,28.6,29.69,WNW,296,5.0,13.0,96,0.00,,---,0.04,VWS V14.01,2013-02-28 01:33:00,
2013-02-27 19:38:00,29.6,28.6,29.70,NW,308,11.0,13.0,96,0.00,,---,0.04,VWS V14.01,2013-02-28 01:38:00,
2013-02-27 19:43:00,29.5,28.5,29.70,WNW,296,6.0,13.0,96,0.00,,---,0.04,VWS V14.01,2013-02-28 01:43:00,
2013-02-27 19:48:00,29.5,28.5,29.70,WNW,294,9.0,13.0,96,0.00,,---,0.04,VWS V14.01,2013-02-28 01:48:00,
2013-02-27 19:53:00,29.5,28.5,29.70,WNW,299,5.0,13.0,96,0.00,,---,0.04,VWS V14.01,2013-02-28 01:53:00,
2013-02-27 19:58:00,29.4,28.7,29.70,WNW,289,6.0,13.0,97,0.00,,---,0.04,VWS V14.01,2013-02-28 01:58:00,
2013-02-27 20:03:00,29.4,28.7,29.70,WNW,293,6.0,13.0,97,0.00,,---,0.04,VWS V14.01,2013-02-28 02:03:00,
2013-02-27 20:08:00,29.4,28.7,29.71,WNW,300,4.0,13.0,97,0.00,,---,0.04,VWS V14.01,2013-02-28 02:08:00,
2013-02-27 20:13:00,29.4,28.7,29.71,NNW,329,8.0,13.0,97,0.00,,---,0.04,VWS V14.01,2013-02-28 02:13:00,
2013-02-27 20:18:00,29.4,28.7,29.71,WNW,296,7.0,13.0,97,0.00,,---,0.04,VWS V14.01,2013-02-28 02:18:00,
2013-02-27 20:23:00,29.4,28.7,29.71,NNW,331,10.0,13.0,97,0.00,,---,0.04,VWS V14.01,2013-02-28 02:23:00,
2013-02-27 20:28:00,29.3,28.6,29.71,NW,310,7.0,13.0,97,0.00,,---,0.04,VWS V14.01,2013-02-28 02:28:00,
2013-02-27 20:33:00,29.3,28.6,29.71,West,281,5.0,13.0,97,0.00,,---,0.04,VWS V14.01,2013-02-28 02:33:00,
2013-02-27 20:38:00,29.3,28.6,29.71,NW,307,5.0,13.0,97,0.00,,---,0.04,VWS V14.01,2013-02-28 02:38:00,
2013-02-27 20:43:00,29.3,28.6,29.71,NW,316,5.0,13.0,97,0.00,,---,0.04,VWS V14.01,2013-02-28 02:43:00,
2013-02-27 20:48:00,29.3,28.6,29.71,WNW,294,7.0,13.0,97,0.00,,---,0.04,VWS V14.01,2013-02-28 02:48:00,
2013-02-27 20:53:00,29.3,28.6,29.72,NW,304,6.0,14.0,97,0.00,,---,0.04,VWS V14.01,2013-02-28 02:53:00,
2013-02-27 20:58:00,29.2,28.5,29.72,WNW,302,5.0,14.0,97,0.00,,---,0.04,VWS V14.01,2013-02-28 02:58:00,
2013-02-27 21:03:00,29.2,28.5,29.72,NW,320,7.0,10.0,97,0.00,,---,0.04,VWS V14.01,2013-02-28 03:03:00,
2013-02-27 21:08:00,29.2,28.5,29.72,NW,308,4.0,11.0,97,0.00,,---,0.04,VWS V14.01,2013-02-28 03:08:00,
2013-02-27 21:13:00,29.2,28.5,29.72,NW,315,6.0,13.0,97,0.00,,---,0.04,VWS V14.01,2013-02-28 03:13:00,
2013-02-27 21:18:00,29.2,28.5,29.72,WNW,296,5.0,13.0,97,0.00,,---,0.04,VWS V14.01,2013-02-28 03:18:00,
2013-02-27 21:23:00,29.1,28.4,29.72,WNW,294,7.0,13.0,97,0.00,,---,0.04,VWS V14.01,2013-02-28 03:23:00,
2013-02-27 21:28:00,29.1,28.4,29.72,NW,305,9.0,13.0,97,0.00,,---,0.04,VWS V14.01,2013-02-28 03:28:00,
2013-02-27 21:33:00,29.1,28.4,29.73,NNW,334,6.0,11.0,97,0.00,,---,0.04,VWS V14.01,2013-02-28 03:33:00,
2013-02-27 21:38:00,29.1,28.4,29.73,WNW,301,6.0,12.0,97,0.00,,---,0.04,VWS V14.01,2013-02-28 03:38:00,
2013-02-27 21:43:00,29.1,28.4,29.73,WNW,296,5.0,13.0,97,0.00,,---,0.04,VWS V14.01,2013-02-28 03:43:00,
2013-02-27 21:48:00,29.0,28.3,29.73,NW,324,9.0,13.0,97,0.00,,---,0.04,VWS V14.01,2013-02-28 03:48:00,
2013-02-27 21:53:00,29.0,28.3,29.73,NW,304,6.0,13.0,97,0.00,,---,0.04,VWS V14.01,2013-02-28 03:53:00,
2013-02-27 21:58:00,29.0,28.3,29.73,NW,309,11.0,13.0,97,0.00,,---,0.04,VWS V14.01,2013-02-28 03:58:00,
2013-02-27 22:03:00,29.0,28.3,29.73,WNW,295,6.0,10.0,97,0.00,,---,0.04,VWS V14.01,2013-02-28 04:03:00,
2013-02-27 22:08:00,29.0,28.3,29.73,NW,312,6.0,13.0,97,0.00,,---,0.04,VWS V14.01,2013-02-28 04:08:00,
2013-02-27 22:13:00,29.0,28.3,29.73,NW,317,5.0,13.0,97,0.00,,---,0.04,VWS V14.01,2013-02-28 04:13:00,
2013-02-27 22:18:00,29.0,28.3,29.74,NNW,337,6.0,13.0,97,0.00,,---,0.04,VWS V14.01,2013-02-28 04:18:00,
2013-02-27 22:23:00,29.0,28.0,29.73,NNW,328,5.0,15.0,96,0.00,,---,0.04,VWS V14.01,2013-02-28 04:23:00,
2013-02-27 22:28:00,29.0,28.3,29.73,NW,307,7.0,15.0,97,0.00,,---,0.04,VWS V14.01,2013-02-28 04:28:00,
2013-02-27 22:33:00,29.0,28.0,29.74,NW,325,12.0,12.0,96,0.00,,---,0.04,VWS V14.01,2013-02-28 04:33:00,
2013-02-27 22:38:00,29.0,28.0,29.73,NW,311,5.0,13.0,96,0.00,,---,0.04,VWS V14.01,2013-02-28 04:38:00,
2013-02-27 22:43:00,28.9,27.9,29.74,NW,309,3.0,14.0,96,0.00,,---,0.04,VWS V14.01,2013-02-28 04:43:00,
2013-02-27 22:48:00,28.9,27.9,29.74,WNW,296,7.0,14.0,96,0.00,,---,0.04,VWS V14.01,2013-02-28 04:48:00,
2013-02-27 22:53:00,28.9,27.9,29.74,NNW,328,6.0,14.0,96,0.00,,---,0.04,VWS V14.01,2013-02-28 04:53:00,
2013-02-27 23:00:00,28.8,27.8,29.74,WNW,297,5.0,14.0,96,0.00,,---,0.04,VWS V14.01,2013-02-28 05:00:00,
2013-02-27 23:05:00,28.8,27.8,29.74,NW,304,7.0,11.0,96,0.00,,---,0.04,VWS V14.01,2013-02-28 05:05:00,
2013-02-27 23:11:00,28.8,27.8,29.74,NW,310,5.0,12.0,96,0.00,,---,0.04,VWS V14.01,2013-02-28 05:11:00,
2013-02-27 23:16:00,28.8,27.8,29.74,North,355,6.0,12.0,96,0.00,,---,0.04,VWS V14.01,2013-02-28 05:16:00,
2013-02-27 23:21:00,28.8,27.8,29.74,WNW,297,6.0,12.0,96,0.00,,---,0.04,VWS V14.01,2013-02-28 05:21:00,
2013-02-27 23:26:00,28.8,27.8,29.74,NW,305,9.0,12.0,96,0.00,,---,0.04,VWS V14.01,2013-02-28 05:26:00,
2013-02-27 23:31:00,28.8,27.8,29.74,WNW,288,7.0,9.0,96,0.00,,---,0.04,VWS V14.01,2013-02-28 05:31:00,
2013-02-27 23:36:00,28.8,27.5,29.74,WNW,303,10.0,13.0,95,0.00,,---,0.04,VWS V14.01,2013-02-28 05:36:00,
2013-02-27 23:41:00,28.7,27.5,29.74,NNW,334,5.0,13.0,95,0.00,,---,0.04,VWS V14.01,2013-02-28 05:41:00,
2013-02-27 23:46:00,28.7,27.5,29.74,NW,317,12.0,13.0,95,0.00,,---,0.04,VWS V14.01,2013-02-28 05:46:00,
2013-02-27 23:51:00,28.7,27.5,29.74,NW,311,10.0,14.0,95,0.00,,---,0.04,VWS V14.01,2013-02-28 05:51:00,
2013-02-27 23:56:00,28.7,27.5,29.74,WNW,289,9.0,14.0,95,0.00,,---,0.04,VWS V14.01,2013-02-28 05:56:00,